Location: Shannon
(40.5500°S, 175.4167°E)
Time: 22:01:47
(UTC+00:00)

ARIANE 6 FM1 Upper Stage - Pass Details

Date: 17 November 2025
Orbit: 522 x 611 km, 62.0° (Epoch: 14 December)

Event Time Altitude Azimuth Distance (km) Brightness Sun altitude
Exits shadow 13:47:36 25° 71° (ENE) 1,237 4.4 -25.6°
Drops below altitude 10° 13:50:59 10° 119° (ESE) 1,983 6.2 -25.3°
Sets 13:53:35 0° 132° (SE) 2,904 7.5 -25.0°
